STARLINK-3321 (50803 NORAD) Tracking and Keplerian Element Data
This shows tracking and keplerian element data for the satellite.
Feedback or suggestion? Click here.
Element | Value |
Catalog | 50803 |
Name | STARLINK-3321 |
Epoch Orbit | 130 |
Epoch Day | 140.58334491 |
Epoch Year | 2022 |
RAAN | 285.0488 |
Inclination | 53.2166 |
Eccentricity | 0.0001801 |
Argument of Perigee | 49.1867 |
Mean Anonmoly | 217.2933 |
Mean Motion | 15.08860843 |
Decay Rate | -0.00024902 |
L1 | 1 50803U 22001A 22140.58334491 -.00024902 00000+0 -15510-2 0 9999 |
L2 | 2 50803 53.2166 285.0488 0001801 49.1867 217.2933 15.08860843 1305 |
Live tracking and technical data element details for STARLINK-3321 (NORAD 50803). STARLINK-3321 can be tracked NOW for your location showing map with azimuth and elevation plus other details from your city location.
Track the satellite on the map from your city or location and see movement details for azimuth, elevation, latitude, longitude, range, height, and movement on the map or in text.
IsCatalogInMostPopularTable: catalog: 50803, numindb: 18
Update: records affected: 1
GetName: 50803 STARLINK-3321
Hit Count: updated at: Mon, 23 May 2022 19:48:15 GMT